OBJECT J, 57174

Orbit data source: Space-Track

You're viewing an uncataloged RSO

Recently launched and/or uncataloged RSOs may have evolving metadata. Metadata may include the following, but is not limited to: Owner, Manufacturer, Bus, Motor, and Mission.

OBJECT J, 57174 is a satellite in SSO that was launched on Tue, 27 Jun 2023 UTC via a SOYUZ-2-1B launch vehicle from the Vostochny Cosmodrome (VOSTO). Unknown objects in Earth's orbit typically refer to objects detected orbiting the Earth but have not yet been identified or cataloged. These objects could be anything from previously untracked satellites, spent rocket stages, debris from satellite collisions, or even natural meteoroids temporarily captured by Earth's gravity.

Loading next visibility...
Identifier
57174, 2023-091J
Orbit
SSO
Country
Flag of TBDTBD
Related business
None
Manufacturer
Unknown
Mission
Operational Amateur Technology
Bus & Motor
Unknown
Mass
Unknown
Launch date (UTC)
2023-06-27 (3 years ago)
Launch vehicle
SOYUZ-2-1B
Launch site
Vostochny Cosmodrome (VOSTO)
Object type
Unknown
Shape & HBR
Box, 0.2 m
Radar Cross Section
0.080 m², Medium (>0.1 m² and < 1m²)

Expand to show TLE details & history
Last TLE update: 9 hours ago

TLE from 9 hours ago
0 OBJECT J
1 57174U 23091J   26256.87237847  .00002634  00000-0  14671-3 0  9993
2 57174  97.4962 308.6929 0012628 194.5443 165.5427 15.14434839177051
Epoch: 2026-09-13T20:56Z
TLE epoch observation values (Epoch: 2026-09-13T20:56:13.499Z)
Latitude
-0.00007°
Longitude
1.77587°
Altitude
534.216 km
Speed
7.591 km/s
True Right ascension
20h 34m 46s
True Declination
0° 00' 00"
Sunlit
Object was in full shadow at epoch
Visualization orbit readout
Latitude
Unknown
Longitude
Unknown
Altitude
Unknown
Speed
Unknown
Apparent Right ascension
Unknown
Apparent Declination
Unknown
Sunlit
N/A
Visualization observer readout
Local Sidereal Time
22:40:46
Azimuth
Unknown
Elevation
Unknown
Doppler factor
Unknown
Orbital elements
Apogee altitude
528.383 km
Perigee altitude
510.961 km
Semi-major axis
6,897.809 km
Eccentricity
0.00126
Inclination
97.4962°
RAAN
308.6929°
Arg. of periapsis
194.5443°
True anomaly
165.57877°
Mean anomaly
165.5427°
Eccentric anomaly
165.56074°
Mean motion
3.78858 °/min
Orbital period
95.02 mins
BSTAR
0.00014671
Loading maneuver chart data...
Computing Atmospheric mass density...
Loading historical data...
Loading historical data...
Loading historical data...
Loading historical data...
Loading historical data...
Loading historical data...
Loading historical data...

Documentation

Showing up to 5 results
|